Time,TemperatureF,DewpointF,PressureIn,WindDirection,WindDirectionDegrees,WindSpeedMPH,WindSpeedGustMPH,Humidity,HourlyPrecipIn,Conditions,Clouds,dailyrainin,SoftwareType,DateUTC
2013-07-21 00:03:00,62.8,57.6,29.67,SSE,157,0.0,-999.0,83,-99.99,,,0.00,Acu-Link.com,2013-07-21 07:03:00,
2013-07-21 00:18:00,62.2,57.3,29.67,North,0,0.0,-999.0,84,-99.99,,,0.00,Acu-Link.com,2013-07-21 07:18:00,
2013-07-21 00:33:00,62.1,57.5,29.67,ESE,112,0.0,-999.0,85,-99.99,,,0.00,Acu-Link.com,2013-07-21 07:33:00,
2013-07-21 00:48:00,61.5,57.3,29.67,SSE,157,0.0,-999.0,86,-99.99,,,0.00,Acu-Link.com,2013-07-21 07:48:00,
2013-07-21 01:03:00,61.2,57.0,29.67,North,0,0.0,-999.0,86,-99.99,,,0.00,Acu-Link.com,2013-07-21 08:03:00,
2013-07-21 01:19:00,61.2,57.3,29.67,North,0,0.0,-999.0,87,-99.99,,,0.00,Acu-Link.com,2013-07-21 08:19:00,
2013-07-21 01:34:00,60.8,57.2,29.66,North,0,0.0,-999.0,88,-99.99,,,0.00,Acu-Link.com,2013-07-21 08:34:00,
2013-07-21 01:49:00,60.4,56.8,29.66,North,0,0.0,-999.0,88,-99.99,,,0.00,Acu-Link.com,2013-07-21 08:49:00,
2013-07-21 02:05:00,60.1,56.8,29.66,NNW,337,0.0,-999.0,89,-99.99,,,0.00,Acu-Link.com,2013-07-21 09:05:00,
2013-07-21 02:20:00,59.4,57.1,29.66,ESE,112,0.0,-999.0,92,-99.99,,,0.00,Acu-Link.com,2013-07-21 09:20:00,
2013-07-21 02:35:00,59.2,57.5,29.65,NNW,337,0.0,-999.0,94,-99.99,,,0.00,Acu-Link.com,2013-07-21 09:35:00,
2013-07-21 02:50:00,59.0,57.0,29.66,South,180,0.0,-999.0,93,-99.99,,,0.00,Acu-Link.com,2013-07-21 09:50:00,
2013-07-21 03:05:00,58.8,56.8,29.66,East,90,0.0,-999.0,93,-99.99,,,0.00,Acu-Link.com,2013-07-21 10:05:00,
2013-07-21 03:21:00,58.3,56.3,29.66,ESE,112,0.0,-999.0,93,-99.99,,,0.00,Acu-Link.com,2013-07-21 10:21:00,
2013-07-21 03:36:00,58.3,56.0,29.65,East,90,0.0,-999.0,92,-99.99,,,0.00,Acu-Link.com,2013-07-21 10:36:00,
2013-07-21 03:51:00,57.6,55.3,29.66,South,180,0.0,-999.0,92,-99.99,,,0.00,Acu-Link.com,2013-07-21 10:51:00,
2013-07-21 04:06:00,57.4,55.4,29.66,South,180,0.0,-999.0,93,-99.99,,,0.00,Acu-Link.com,2013-07-21 11:06:00,
2013-07-21 04:21:00,57.2,55.8,29.65,North,0,0.0,-999.0,95,-99.99,,,0.00,Acu-Link.com,2013-07-21 11:21:00,
2013-07-21 04:36:00,57.0,56.2,29.65,NE,45,0.0,-999.0,97,-99.99,,,0.00,Acu-Link.com,2013-07-21 11:36:00,
2013-07-21 04:51:00,56.8,56.0,29.66,NE,45,0.0,-999.0,97,-99.99,,,0.00,Acu-Link.com,2013-07-21 11:51:00,
2013-07-21 05:08:00,56.5,55.7,29.66,NE,45,0.0,-999.0,97,-99.99,,,0.00,Acu-Link.com,2013-07-21 12:08:00,
2013-07-21 05:23:00,56.3,55.7,29.67,NE,45,0.0,-999.0,98,-99.99,,,0.00,Acu-Link.com,2013-07-21 12:23:00,
2013-07-21 06:10:00,56.1,55.5,29.68,North,0,0.0,-999.0,98,-99.99,,,0.00,Acu-Link.com,2013-07-21 13:10:00,
2013-07-21 06:25:00,56.1,55.5,29.68,East,90,0.0,-999.0,98,-99.99,,,0.00,Acu-Link.com,2013-07-21 13:25:00,
2013-07-21 06:40:00,56.3,55.7,29.68,SSW,202,0.0,-999.0,98,-99.99,,,0.00,Acu-Link.com,2013-07-21 13:40:00,
2013-07-21 06:55:00,56.7,56.1,29.68,North,0,0.0,-999.0,98,-99.99,,,0.00,Acu-Link.com,2013-07-21 13:55:00,
2013-07-21 07:10:00,57.4,56.8,29.69,East,90,0.0,-999.0,98,-99.99,,,0.00,Acu-Link.com,2013-07-21 14:10:00,
2013-07-21 07:25:00,57.7,57.1,29.69,SE,135,1.1,-999.0,98,-99.99,,,0.00,Acu-Link.com,2013-07-21 14:25:00,
2013-07-21 07:40:00,58.5,57.9,29.69,SSW,202,0.0,-999.0,98,-99.99,,,0.00,Acu-Link.com,2013-07-21 14:40:00,
2013-07-21 07:55:00,59.5,58.4,29.70,East,90,0.0,-999.0,96,-99.99,,,0.00,Acu-Link.com,2013-07-21 14:55:00,
2013-07-21 08:10:00,60.4,58.4,29.69,East,90,0.0,-999.0,93,-99.99,,,0.00,Acu-Link.com,2013-07-21 15:10:00,
2013-07-21 08:25:00,61.3,58.6,29.69,SSW,202,0.0,-999.0,91,-99.99,,,0.00,Acu-Link.com,2013-07-21 15:25:00,
2013-07-21 08:41:00,61.9,58.9,29.70,ESE,112,0.0,-999.0,90,-99.99,,,0.00,Acu-Link.com,2013-07-21 15:41:00,
2013-07-21 08:56:00,63.0,59.4,29.70,ESE,112,0.0,-999.0,88,-99.99,,,0.00,Acu-Link.com,2013-07-21 15:56:00,
2013-07-21 09:11:00,64.0,59.4,29.70,NNE,22,1.7,-999.0,85,-99.99,,,0.00,Acu-Link.com,2013-07-21 16:11:00,
2013-07-21 09:28:00,65.8,60.1,29.70,South,180,2.2,-999.0,82,-99.99,,,0.00,Acu-Link.com,2013-07-21 16:28:00,
2013-07-21 09:43:00,67.3,60.2,29.69,NNW,337,1.1,-999.0,78,-99.99,,,0.00,Acu-Link.com,2013-07-21 16:43:00,
2013-07-21 10:02:00,69.1,60.8,29.70,NNW,337,1.7,-999.0,75,-99.99,,,0.00,Acu-Link.com,2013-07-21 17:02:00,
2013-07-21 10:18:00,71.4,60.7,29.70,South,180,1.7,-999.0,69,-99.99,,,0.00,Acu-Link.com,2013-07-21 17:18:00,
2013-07-21 10:33:00,73.8,62.1,29.70,NE,45,1.7,-999.0,67,-99.99,,,0.00,Acu-Link.com,2013-07-21 17:33:00,
2013-07-21 11:10:00,73.8,62.1,29.69,NNE,22,0.0,-999.0,67,-99.99,,,0.00,Acu-Link.com,2013-07-21 18:10:00,
2013-07-21 13:16:00,87.4,61.5,29.67,WNW,292,1.1,-999.0,42,-99.99,,,0.00,Acu-Link.com,2013-07-21 20:16:00,
2013-07-21 13:31:00,88.7,61.2,29.67,SSE,157,2.2,-999.0,40,-99.99,,,0.00,Acu-Link.com,2013-07-21 20:31:00,
2013-07-21 13:46:00,89.6,62.7,29.66,SSW,202,2.2,-999.0,41,-99.99,,,0.00,Acu-Link.com,2013-07-21 20:46:00,
2013-07-21 14:01:00,90.0,60.9,29.65,WSW,247,2.7,-999.0,38,-99.99,,,0.00,Acu-Link.com,2013-07-21 21:01:00,
2013-07-21 14:16:00,90.3,62.7,29.67,ESE,112,4.2,-999.0,40,-99.99,,,0.00,Acu-Link.com,2013-07-21 21:16:00,
2013-07-21 14:31:00,90.9,62.5,29.66,North,0,2.7,-999.0,39,-99.99,,,0.00,Acu-Link.com,2013-07-21 21:31:00,
2013-07-21 14:46:00,90.9,63.2,29.66,NNW,337,2.2,-999.0,40,-99.99,,,0.00,Acu-Link.com,2013-07-21 21:46:00,
2013-07-21 15:01:00,92.5,63.1,29.66,South,180,2.7,-999.0,38,-99.99,,,0.00,Acu-Link.com,2013-07-21 22:01:00,
2013-07-21 15:17:00,92.5,62.4,29.66,South,180,2.2,-999.0,37,-99.99,,,0.00,Acu-Link.com,2013-07-21 22:17:00,
2013-07-21 15:32:00,92.3,63.0,29.65,South,180,2.7,-999.0,38,-99.99,,,0.00,Acu-Link.com,2013-07-21 22:32:00,
2013-07-21 15:47:00,92.5,60.0,29.65,North,0,1.7,-999.0,34,-99.99,,,0.00,Acu-Link.com,2013-07-21 22:47:00,
2013-07-21 16:02:00,92.7,62.6,29.65,SSE,157,2.2,-999.0,37,-99.99,,,0.00,Acu-Link.com,2013-07-21 23:02:00,
2013-07-21 16:17:00,94.8,62.8,29.65,NNW,337,2.7,-999.0,35,-99.99,,,0.00,Acu-Link.com,2013-07-21 23:17:00,
2013-07-21 16:32:00,92.8,62.7,29.64,SW,225,2.2,-999.0,37,-99.99,,,0.00,Acu-Link.com,2013-07-21 23:32:00,
2013-07-21 16:47:00,91.8,64.0,29.64,ENE,67,4.7,-999.0,40,-99.99,,,0.00,Acu-Link.com,2013-07-21 23:47:00,
2013-07-21 17:02:00,91.6,64.5,29.65,West,270,2.7,-999.0,41,-99.99,,,0.00,Acu-Link.com,2013-07-22 00:02:00,
2013-07-21 17:17:00,90.5,64.2,29.64,NE,45,2.7,-999.0,42,-99.99,,,0.00,Acu-Link.com,2013-07-22 00:17:00,
2013-07-21 17:33:00,89.8,64.3,29.64,NNW,337,2.2,-999.0,43,-99.99,,,0.00,Acu-Link.com,2013-07-22 00:33:00,
2013-07-21 17:48:00,88.9,64.1,29.64,East,90,1.1,-999.0,44,-99.99,,,0.00,Acu-Link.com,2013-07-22 00:48:00,
2013-07-21 18:03:00,88.2,64.1,29.64,West,270,2.2,-999.0,45,-99.99,,,0.00,Acu-Link.com,2013-07-22 01:03:00,
2013-07-21 18:18:00,87.3,64.0,29.65,ENE,67,1.7,-999.0,46,-99.99,,,0.00,Acu-Link.com,2013-07-22 01:18:00,
2013-07-21 18:33:00,86.9,63.6,29.65,NNE,22,2.2,-999.0,46,-99.99,,,0.00,Acu-Link.com,2013-07-22 01:33:00,
2013-07-21 18:48:00,85.8,63.8,29.65,West,270,2.2,-999.0,48,-99.99,,,0.00,Acu-Link.com,2013-07-22 01:48:00,
2013-07-21 19:03:00,83.8,62.6,29.65,SSW,202,1.7,-999.0,49,-99.99,,,0.00,Acu-Link.com,2013-07-22 02:03:00,
2013-07-21 19:18:00,82.6,62.0,29.66,NNW,337,1.7,-999.0,50,-99.99,,,0.00,Acu-Link.com,2013-07-22 02:18:00,
2013-07-21 19:34:00,81.0,61.7,29.67,SW,225,1.1,-999.0,52,-99.99,,,0.00,Acu-Link.com,2013-07-22 02:34:00,
2013-07-21 19:49:00,79.3,61.7,29.67,NNW,337,1.7,-999.0,55,-99.99,,,0.00,Acu-Link.com,2013-07-22 02:49:00,
2013-07-21 20:04:00,77.5,60.5,29.68,NNE,22,3.2,-999.0,56,-99.99,,,0.00,Acu-Link.com,2013-07-22 03:04:00,
2013-07-21 20:20:00,76.5,60.1,29.68,North,0,1.7,-999.0,57,-99.99,,,0.00,Acu-Link.com,2013-07-22 03:20:00,
2013-07-21 20:48:00,75.6,59.8,29.68,South,180,2.2,-999.0,58,-99.99,,,0.00,Acu-Link.com,2013-07-22 03:48:00,
2013-07-21 21:04:00,73.8,59.5,29.69,ESE,112,1.7,-999.0,61,-99.99,,,0.00,Acu-Link.com,2013-07-22 04:04:00,
2013-07-21 21:22:00,73.8,59.5,29.70,WNW,292,0.0,-999.0,61,-99.99,,,0.00,Acu-Link.com,2013-07-22 04:22:00,
2013-07-21 21:40:00,72.1,59.2,29.71,WNW,292,0.0,-999.0,64,-99.99,,,0.00,Acu-Link.com,2013-07-22 04:40:00,
2013-07-21 22:19:00,72.1,59.2,29.73,ESE,112,0.0,-999.0,64,-99.99,,,0.00,Acu-Link.com,2013-07-22 05:19:00,
2013-07-21 22:37:00,69.8,59.6,29.73,ESE,112,0.0,-999.0,70,-99.99,,,0.00,Acu-Link.com,2013-07-22 05:37:00,
2013-07-21 22:52:00,69.3,59.5,29.73,SSE,157,0.0,-999.0,71,-99.99,,,0.00,Acu-Link.com,2013-07-22 05:52:00,
2013-07-21 23:07:00,68.5,59.5,29.74,SSE,157,0.0,-999.0,73,-99.99,,,0.00,Acu-Link.com,2013-07-22 06:07:00,